Whitewater Creek, Colorado (Grand Mesa) Weather observations

Data are for observation ending at time listed.
 Day   Time    Ave.   Ave.  Ave.  Vector   Max.    Total    Solar   Ave.  
  of    of     Air    Rel.  Wind   Wind    Wind   Precip.   Rad.    Soil  
Year   Day     Temp.  Hum.  Speed  Dir.    Gust                     Temp. 
2014   (MST)    F      %     mph   deg.    mph      in.     W/m2     F   
------------------------------------------------------------------------------
 240    2:40   38.8    95    2.2     6      2.2    99999.00   99999    99999.0
 240    2:50   38.8    96    2.2    10      2.2    99999.00   99999    99999.0
 240    3:00   38.7    96    2.2     3      2.2    99999.00   99999    99999.0
 240    3:10   38.8    97    2.2     1      2.2    99999.00   99999    99999.0
 240    3:20   38.8    97    2.2     0      2.2    99999.00   99999    99999.0
 240    3:30   38.9    97    2.2     2      2.2    99999.00   99999    99999.0
 240    3:40   38.9    97    2.2   357      2.2    99999.00   99999    99999.0
 240    3:50   38.9    97    2.2   352      2.2    99999.00   99999    99999.0
 240    4:00   39.0    97    2.2   349      2.2    99999.00   99999    99999.0
 240    4:10   39.0    97    2.2   354      2.2    99999.00   99999    99999.0
 240    4:20   39.0    97    2.2   354      2.2    99999.00   99999    99999.0
 240    4:30   38.9    97    2.2     2      2.2    99999.00   99999    99999.0
 240    4:40   39.0    97    2.2   347      2.2    99999.00   99999    99999.0
 240    4:50   39.4    96    2.2   349      2.2    99999.00   99999    99999.0
 240    5:00   39.4    95    2.2     3      2.2    99999.00   99999    99999.0
 240    5:10   39.4    96    2.2    10      2.2    99999.00   99999    99999.0
 240    5:20   39.5    96    2.2     7      2.2    99999.00   99999    99999.0
 240    5:30   39.6    97    2.2     7      2.2    99999.00   99999    99999.0
 240    5:40   39.7    97    2.2     6      2.2    99999.00   99999    99999.0
 240    5:50   39.8    97    2.2   353      2.2    99999.00   99999    99999.0
 240    6:00   39.7    96    2.2   354      2.2    99999.00   99999    99999.0
 240    6:10   39.8    96    2.2   357      2.2    99999.00   99999    99999.0
 240    6:20   40.1    96    2.2   351      2.2    99999.00   99999    99999.0
 240    6:30   40.2    95    2.2   341      2.2    99999.00   99999    99999.0
 240    6:40   39.9    96    2.2   359      2.2    99999.00   99999    99999.0
 240    6:50   39.8    96    2.2   344      2.2    99999.00   99999    99999.0
 240    7:00   40.0    96    2.2   345      2.2    99999.00   99999    99999.0
 240    7:10   39.8    96    2.2   356      2.2    99999.00   99999    99999.0
 240    7:20   40.3    97    2.2   337      3.5    99999.00   99999    99999.0
 240    7:30   40.5    95    2.2   329      2.2    99999.00   99999    99999.0
 240    7:40   40.6    95    2.2   325      2.2    99999.00   99999    99999.0
 240    7:50   40.8    94    2.2   328      2.2    99999.00   99999    99999.0
 240    8:00   40.5    95    2.2   331      2.2    99999.00   99999    99999.0
 240    8:10   40.8    94    2.2   336      2.2    99999.00   99999    99999.0
 240    8:20   40.6    94    2.2   333      2.2    99999.00   99999    99999.0
 240    8:30   40.7    94    2.2   330      2.2    99999.00   99999    99999.0
 240    8:40   40.9    94    2.2   334      2.2    99999.00   99999    99999.0
 240    8:50   41.5    94    2.2   347      2.2    99999.00   99999    99999.0
 240    9:00   41.8    94    2.2   343      2.2    99999.00   99999    99999.0
 240    9:10   41.5    94    2.2   342      2.2    99999.00   99999    99999.0
 240    9:20   41.9    94    2.2   348      2.2    99999.00   99999    99999.0
 240    9:30   42.1    95    2.2   345      2.2    99999.00   99999    99999.0
 240    9:40   42.3    94    2.2   359      3.5    99999.00   99999    99999.0
 240    9:50   42.1    95    2.2   352      2.2    99999.00   99999    99999.0
 240   10:00   42.0    95    2.2   354      2.2    99999.00   99999    99999.0
 240   10:10   42.1    95    2.2   357      2.2    99999.00   99999    99999.0
 240   10:20   42.1    96    2.2     1      2.2    99999.00   99999    99999.0
 240   10:30   42.0    96    2.2     7      2.2    99999.00   99999    99999.0
 240   10:40   41.9    96    2.2    10      2.2    99999.00   99999    99999.0
 240   10:50   42.1    96    2.2     7      2.2    99999.00   99999    99999.0
 240   11:00   42.4    97    2.2    10      2.2    99999.00   99999    99999.0
 240   11:10   42.5    96    2.2    17      2.2    99999.00   99999    99999.0
 240   11:20   43.2    96    2.5    26      8.6    99999.00   99999    99999.0
 240   11:30   43.6    94    2.2    16      2.2    99999.00   99999    99999.0
 240   11:40   44.7    91    2.2    22      2.2    99999.00   99999    99999.0
 240   11:50   45.2    89    2.2    29      2.2    99999.00   99999    99999.0
 240   12:00   46.0    87    2.2    11      2.2    99999.00   99999    99999.0
 240   12:10   47.0    84    2.2    23      2.2    99999.00   99999    99999.0
 240   12:20   46.9    84    2.2    12      3.5    99999.00   99999    99999.0
 240   12:30   47.3    84    2.2    36      2.2    99999.00   99999    99999.0
 240   12:40   47.3    82    2.3    30      4.8    99999.00   99999    99999.0
 240   12:50   47.9    82    2.2    21      2.2    99999.00   99999    99999.0
 240   13:00   47.6    81    2.2    17      2.2    99999.00   99999    99999.0
 240   13:10   48.2    81    2.2    28      2.2    99999.00   99999    99999.0
 240   13:20   49.0    78    2.2    22      2.2    99999.00   99999    99999.0
 240   13:30   49.6    75    2.2    26      2.2    99999.00   99999    99999.0
 240   13:40   49.8    74    2.2    21      2.2    99999.00   99999    99999.0
 240   13:50   49.9    71    2.2    17      2.2    99999.00   99999    99999.0
 240   14:00   50.0    72    2.2    34      2.2    99999.00   99999    99999.0
 240   14:10   50.1    71    2.2     1      2.2    99999.00   99999    99999.0
 240   14:20   50.1    70    2.3     2      4.8    99999.00   99999    99999.0
 240   14:30   50.7    71    2.2    12      2.2    99999.00   99999    99999.0
 240   14:40   50.4    72    2.2    15      2.2    99999.00   99999    99999.0
 240   14:50   50.7    72    2.2     7      3.5    99999.00   99999    99999.0
 240   15:00   50.6    71    2.2    15      2.2    99999.00   99999    99999.0
 240   15:10   51.0    70    2.2    27      3.5    99999.00   99999    99999.0
 240   15:20   50.9    71    2.2    14      2.2    99999.00   99999    99999.0
 240   15:30   50.2    72    2.2     4      2.2    99999.00   99999    99999.0
 240   15:40   50.1    75    2.2    20      2.2    99999.00   99999    99999.0
 240   15:50   49.8    74    2.2    30      4.8    99999.00   99999    99999.0
 240   16:00   51.4    72    2.3    28      6.1    99999.00   99999    99999.0
 240   16:10   52.5    67    2.3    32      7.4    99999.00   99999    99999.0
 240   16:20   51.2    69    2.2    18      2.2    99999.00   99999    99999.0
 240   16:30   49.6    73    2.2     2      2.2    99999.00   99999    99999.0
 240   16:40   50.2    69    2.2   355      2.2    99999.00   99999    99999.0
 240   16:50   50.3    70    2.2   356      2.2    99999.00   99999    99999.0
 240   17:00   50.6    69    2.2   352      2.2    99999.00   99999    99999.0
 240   17:10   50.6    69    2.2   351      2.2    99999.00   99999    99999.0
 240   17:20   51.0    67    2.2   347      2.2    99999.00   99999    99999.0
 240   17:30   52.4    66    2.2   346      2.2    99999.00   99999    99999.0
 240   17:40   52.6    65    2.2    17      2.2    99999.00   99999    99999.0
 240   17:50   51.0    67    2.2     2      2.2    99999.00   99999    99999.0
 240   18:00   49.4    70    2.2     0      2.2    99999.00   99999    99999.0
 240   18:10   48.8    71    2.2     0      2.2    99999.00   99999    99999.0
 240   18:20   47.7    78    2.2     0      2.2    99999.00   99999    99999.0
 240   18:30   45.9    84    2.2     0      2.2    99999.00   99999    99999.0
 240   18:40   45.5    85    2.2     0      3.5    99999.00   99999    99999.0
 240   18:50   43.8    89    2.2   328      4.8    99999.00   99999    99999.0
 240   19:00   42.5    93    2.2   163      2.2    99999.00   99999    99999.0
 240   19:10   42.8    90    2.2   115      2.2    99999.00   99999    99999.0
 240   19:20   41.7    91    2.2   115      2.2    99999.00   99999    99999.0
 240   19:30   41.8    94    2.2   115      2.2    99999.00   99999    99999.0
 240   19:40   41.8    92    2.2   115      2.2    99999.00   99999    99999.0
 240   19:50   41.2    94    2.2   115      2.2    99999.00   99999    99999.0
 240   20:00   40.4    94    2.2   115      2.2    99999.00   99999    99999.0
 240   20:10   41.1    94    2.2   115      2.2    99999.00   99999    99999.0
 240   20:20   41.1    94    2.2   115      2.2    99999.00   99999    99999.0
 240   20:30   40.6    94    2.2   115      2.2    99999.00   99999    99999.0
 240   20:40   40.4    94    2.2   115      2.2    99999.00   99999    99999.0
 240   20:50   40.3    95    2.2   115      2.2    99999.00   99999    99999.0
 240   21:00   40.3    95    2.2   115      2.2    99999.00   99999    99999.0
 240   21:10   40.0    95    2.2   115      2.2    99999.00   99999    99999.0
 240   21:20   39.7    95    2.2   115      2.2    99999.00   99999    99999.0
 240   21:30   40.3    96    2.2   115      2.2    99999.00   99999    99999.0
 240   21:40   40.7    95    2.2   115      2.2    99999.00   99999    99999.0
 240   21:50   40.3    94    2.2   115      2.2    99999.00   99999    99999.0
 240   22:00   40.0    95    2.2   115      2.2    99999.00   99999    99999.0
 240   22:10   40.3    95    2.2   115      2.2    99999.00   99999    99999.0
 240   22:20   40.5    95    2.2   115      2.2    99999.00   99999    99999.0
 240   22:30   40.9    94    2.2   111      2.2    99999.00   99999    99999.0
 240   22:40   40.3    90    2.2    63      2.2    99999.00   99999    99999.0
 240   22:50   40.0    94    2.2    63      2.2    99999.00   99999    99999.0
 240   23:00   40.2    95    2.2    63      2.2    99999.00   99999    99999.0
 240   23:10   40.6    95    2.2    63      2.2    99999.00   99999    99999.0
 240   23:20   40.0    94    2.2    63      2.2    99999.00   99999    99999.0
 240   23:30   39.6    95    2.2    63      2.2    99999.00   99999    99999.0
 240   23:40   40.1    96    2.2    63      2.2    99999.00   99999    99999.0
 240   23:50   40.1    96    2.2    63      2.2    99999.00   99999    99999.0
 241    0:00   40.0    96    2.2    63      2.2    99999.00   99999    99999.0
 241    0:10   39.9    96    2.2    63      2.2    99999.00   99999    99999.0
 241    0:20   39.7    96    2.2    63      2.2    99999.00   99999    99999.0
 241    0:30   39.2    96    2.2    63      2.2    99999.00   99999    99999.0
 241    0:40   38.4    96    2.2    63      2.2    99999.00   99999    99999.0
 241    0:50   38.9    97    2.2    63      2.2    99999.00   99999    99999.0
 241    1:00   39.6    97    2.2    63      2.2    99999.00   99999    99999.0
 241    1:10   39.1    97    2.2    63      2.2    99999.00   99999    99999.0
 241    1:20   39.2    97    2.2    63      2.2    99999.00   99999    99999.0
 241    1:30   39.3    97    2.2    63      2.2    99999.00   99999    99999.0
 241    1:40   39.4    97    2.2    63      2.2    99999.00   99999    99999.0
 241    1:50   39.6    97    2.2    63      2.2    99999.00   99999    99999.0
 241    2:00   39.6    97    2.2    63      2.2    99999.00   99999    99999.0
 241    2:10   39.3    97    2.2    63      2.2    99999.00   99999    99999.0
 241    2:20   38.9    97    2.2    63      2.2    99999.00   99999    99999.0
 241    2:30   38.8    97    2.2    63      2.2    99999.00   99999    99999.0

Return to Whitewater Creek, Colorado graphs page.


Western Regional Climate Center,wrcc@dri.edu